Regional Weather Roundup
Issued by NWS

Home | Current Version | Previous Version | Graphics & Text | Print | Product List | Glossary On
Versions: 1 2 3 4 5 6 7 8 9 10 11 12 13 14 15 16 17 18 19 20 21 22 23 24 25 26 27 28 29 30 31 32 33 34 35 36 37 38 39 40 41 42 43 44 45 46 47 48 49 50
000
ASUS43 KLMK 231410
RWRKY
KENTUCKY REGIONAL WEATHER ROUNDUP
NATIONAL WEATHER SERVICE LOUISVILLE KY
1000 AM EDT FRI JUN 23 2017

NOTE "FAIR" INDICATES FEW OR NO CLOUDS BELOW 12,000 FEET
WITH NO SIGNIFICANT WEATHER AND/OR OBSTRUCTIONS TO VISIBILITY.

KYZ001>023-026-027-061>063-070>075-231500-
WESTERN AND SOUTH CENTRAL KENTUCKY

CITY           SKY/WX    TMP DP  RH WIND       PRES   REMARKS
PADUCAH        RAIN      75  71  87 S10       29.72S FOG
HENDERSON      CLOUDY    77  73  87 S7        29.74F
OWENSBORO      CLOUDY    78  73  84 S12       29.76F
HOPKINSVILLE   CLOUDY    79  70  74 S10       29.78S
BOWLING GREEN  CLOUDY    81  72  74 S18G30    29.81F
GLASGOW        CLOUDY    80  70  70 S13G22    29.83F
$$

KYZ024-025-028>034-038-045-046-053-231500-
NORTH CENTRAL KENTUCKY

CITY           SKY/WX    TMP DP  RH WIND       PRES   REMARKS
LOUISVILLE/SDF CLOUDY    81  72  74 S14G20    29.78F
LOUISVILLE/LOU CLOUDY    80  74  81 S8        29.79S
FORT KNOX      PTSUNNY   80  72  76 S17       29.78F
$$

KYZ035>037-039>044-047>052-055>060-089>105-231500-
NORTHEAST KENTUCKY

CITY           SKY/WX    TMP DP  RH WIND       PRES   REMARKS
LEXINGTON      CLOUDY    79  69  71 SW16      29.84S
COVINGTON      CLOUDY    77  73  87 SW17G29   29.76F
FRANKFORT      CLOUDY    80  71  74 SW12G24   29.81S
$$

KYZ054-064>069-076>088-106>120-231500-
SOUTHEAST KENTUCKY

CITY           SKY/WX    TMP DP  RH WIND       PRES   REMARKS
JACKSON        CLOUDY    75  70  84 VRB3      29.91S
LONDON         CLOUDY    74  70  87 S9        29.91F
SOMERSET       CLOUDY    73  72  94 S6        29.90S FOG
MIDDLESBORO    LGT RAIN  73  70  89 S9G26     29.95S
MONTICELLO     CLOUDY    78  71  79 VRB5G22   29.90F
$$




USA.gov is the U.S. government's official web portal to all federal, state and local government web resources and services.